Skip Navigation Links weather.gov 
NOAA logo-Select to go to the NOAA homepage NDBC Title GraphicClick to go to NDBC home page   Select to go to the NWS homepage
Home About Us Contact Us
 
 
    
    Station List

 Data Access
    Mobile Access
    Classic Maps
         Recent
         DART®
    Obs Search
    Ship Obs Report
    BuoyCAMs
    TAO
    DODS
    OceanSITES
    HF Radar
    OSMC
    Dial-A-Buoy
    RSS Feeds Image indicating link to RSS feed access page
    Web Widget
    Web Data Guide
    Maintenance Schedule
    Station Status Report

 Program Info
    TAO
    DART®
    IOOS®

 Publications
    NDBC PEA
    NDBC FONSI
    NDBC DQC Handbook

 Visitor Information
 
USA.gov is the U.S. government's official web portal to all federal, state and local government web resources and services.

Hurricane Symbol Storm Special! View the latest observations near East Pacific Hurricane Marie.

Station DOMV2 - 8638511 - Dominion Terminal Associates, VA Image indicating link to RSS feed of recent meteorological observations for station DOMV2

Large icon indicates selected station.
yellow diamond Stations with recent data
red diamond Stations with no data in last 8 hours
     (24 hours for tsunami stations)


Conditions at DOMV2 as of
(8:42 pm EDT on 09/30/2020)
0042 GMT on 10/01/2020:
     

Click on the graph icon in the table below to see a time series plot of the last five days of that observation.

5-day plot - Air Temperature Air Temperature (ATMP): 67.5 °F
5-day plot - Wind Speed at 10 Meters Wind Speed at 10 meters (WSPD10M): 8 kts
5-day plot - Wind Speed at 10 Meters Wind Speed at 20 meters (WSPD20M): 8 kts
NOS Water Level Observation Network Water Level
Previous observations
5-day plot - Wind Direction 5-day plot - Wind Speed 5-day plot - Wind Gust 5-day plot - Wave Height 5-day plot - Dominant Wave Period 5-day plot - Average Period 5-day plot - Mean Wave Direction 5-day plot - Atmospheric Pressure 5-day plot - Pressure Tendency 5-day plot - Air Temperature 5-day plot - Water Temperature 5-day plot - Dew Point 5-day plot - Salinity 5-day plot - Visibility 5-day plot - Tide (above MLLW)
MM DD TIME
(EDT)
WDIR WSPD
kts
GST
kts
WVHT
ft
DPD
sec
APD
sec
MWD PRES
in
PTDY
in
ATMP
°F
WTMP
°F
DEWP
°F
SAL
psu
VIS
nmi
TIDE
ft
0930 8:36 pm--------- 67.5-----
0930 8:30 pm SW 7 11------ 67.5-----
0930 8:24 pm SW 8 11------ 67.5-----
0930 8:18 pmWSW 9 10----29.96- 67.6-----
0930 8:12 pmWSW 9 10----29.96- 67.5-----
0930 8:06 pmWSW 9 10----29.97- 67.6-----
0930 8:00 pm SW 8 10----29.96+0.06------
0930 7:54 pmWSW 8 9----29.96-------
0930 7:48 pmWSW 9 11----29.96-------
0930 7:42 pmWSW 9 11----29.96- 67.6-----
0930 7:36 pmWSW 9 11----29.95- 68.0-----
0930 6:48 pm SW 9 11------------
0930 6:42 pmWSW 11 13----29.93- 68.7-----
0930 6:36 pmWSW 8 14----29.92- 69.1-----
0930 6:30 pmWSW 11 14----29.92- 69.3-----
0930 6:24 pm SW 8 14----29.92- 69.4-----
0930 6:18 pmWSW 11 14----29.92- 69.3-----
0930 6:12 pm W 13 15----29.92- 69.3-----
0930 6:06 pmWSW 12 14----29.92- 69.4-----
0930 6:00 pmWSW 12 15----29.92+0.02 69.4-----
0930 5:54 pm W 12 15----29.91- 69.4-----
0930 5:48 pmWSW 13 15------------
0930 5:42 pm W 11 13----29.91- 69.4-----
0930 5:36 pmWSW 11 13----29.91- 69.6-----
0930 5:30 pm W 10 14----29.91- 69.4-----
0930 5:24 pm W 12 14----29.91- 69.4-----
0930 5:18 pm W 11 14----29.91- 69.6-----
0930 5:12 pm W 11 13----29.91- 69.4-----
0930 5:06 pm W 12 14----29.91- 69.4-----
0930 5:00 pm W 10 11----29.90+0.00 69.6-----
0930 4:48 pmWSW 11 12----29.90- 69.8-----
0930 4:42 pm--------- 69.6-----
0930 4:36 pm--------- 69.3-----
0930 4:30 pm--------- 69.4-----
0930 4:24 pm--------- 69.6-----
0930 4:18 pm W 11 15----29.90- 69.3-----
0930 4:12 pm W 12 14----29.90- 69.3-----
0930 4:06 pmWSW 10 11----29.90- 69.4-----
0930 4:00 pm W 11 14----29.90-0.01 69.1-----
0930 3:54 pm W 9 13----29.90- 69.3-----
0930 3:48 pm W 7 12------------
0930 3:42 pm W 9 11----29.90- 69.1-----
0930 3:36 pmWSW 8 13----29.90- 69.3-----
0930 3:30 pmWSW 11 13----29.90- 69.1-----
0930 3:24 pm W 10 13----29.90- 68.7-----
0930 3:18 pm W 10 14----29.90- 68.5-----
0930 3:12 pmWSW 11 13----29.90- 68.7-----
0930 3:06 pm-------29.90- 68.5-----
0930 3:00 pm W 10 12----29.90-0.01 68.5-----
0930 2:54 pmWSW 9 13----29.90- 68.5-----
0930 2:48 pm W 12 16------------
0930 2:42 pm W 13 17----29.90- 68.4-----
0930 2:36 pm W 9 12----29.90- 68.0-----
0930 2:30 pm W 12 15----29.91- 68.0-----
0930 2:24 pm W 11 15----29.90- 68.0-----
0930 2:18 pm W 13 17----29.90- 67.8-----
0930 2:12 pm W 13 15----29.91- 68.0-----
0930 2:06 pmWNW 13 15----29.91- 67.8-----
0930 2:00 pmWNW 12 17----29.91+0.00 67.6-----
0930 1:54 pmWNW 14 18----29.91- 67.8-----
0930 1:48 pm W 13 20----29.91- 67.3-----
0930 1:42 pm W 15 17----29.91- 67.5-----
0930 1:36 pm W 14 16----29.91- 67.3-----
0930 1:30 pm W 17 19----29.91- 67.3-----
0930 1:24 pm W 15 20----29.91- 67.1-----
0930 1:18 pm W 15 17------ 67.1-----
0930 1:12 pmWNW 14 15----29.91- 67.1-----
0930 1:06 pm W 13 17----29.91- 66.9-----
0930 1:00 pmWNW 13 17----29.91+0.00 66.6-----
093012:54 pmWNW 14 16----29.91- 66.7-----
093012:48 pmWNW 14 17----29.91- 66.6-----
093012:42 pm W 13 17----29.91- 66.6-----
093012:36 pmWNW 13 15----29.91- 66.0-----
093012:30 pmWNW 12 14----29.91- 66.0-----
093012:24 pm W 12 14----29.91- 65.5-----
093012:18 pm W 12 16----29.91- 65.7-----
093012:12 pm W 12 15----29.91- 65.3-----
093012:06 pm W 12 17----29.91- 65.3-----
093012:00 pmWNW 15 18----29.91- 65.5-----
093011:54 am W 13 16----29.91- 65.5-----
093011:48 am W 14 17----29.91- 65.1-----
093011:42 am W 13 18----29.92- 65.1-----
093011:36 amWNW 14 18----29.92- 65.1-----
093011:30 amWNW 15 18----29.92- 64.9-----
093011:18 am W 16 21----29.92- 64.8-----
093011:12 am W 13 16----29.92- 64.6-----
093011:06 am W 15 19----29.92- 64.6-----
093011:00 am W 16 19----29.91- 64.0-----
093010:54 am W 15 19----29.91- 64.2-----
093010:48 am W 17 19----29.91- 63.9-----
093010:42 am W 18 20----29.91- 63.9-----
093010:36 am W 15 20----29.91- 63.5-----
093010:30 am W 18 21----29.91- 63.3-----
093010:24 am W 18 20----29.91- 63.5-----
093010:18 am W 16 19----29.91- 63.0-----
093010:12 am W 18 21----29.91- 63.0-----
093010:06 am W 18 22----29.91- 63.5-----
093010:00 am W 13 19----29.91- 63.1-----
0930 9:54 am W 16 19----29.91- 63.0-----
0930 9:48 am W 15 19------------
0930 9:42 am W 15 19------ 62.8-----
0930 9:36 am W 16 19------ 62.6-----
0930 9:30 am--------- 62.4-----
0930 9:24 am--------- 62.2-----
0930 9:18 amWNW 15 18----29.90- 62.2-----
0930 9:12 amWNW 16 18----29.90- 62.2-----
0930 9:06 am W 15 17----29.90- 62.2-----
0930 8:54 am W 17 19----29.89- 62.1-----
0930 8:48 am W 16 20------------
0930 8:42 am W 17 19----29.88- 62.1-----
0930 8:36 am W 16 17----29.88- 62.1-----
0930 8:30 am W 15 18----29.88- 61.9-----
0930 8:24 am W 15 19----29.88- 61.7-----
0930 8:18 am W 16 21----29.87- 61.7-----
0930 8:12 am W 15 18----29.86- 61.7-----
0930 8:06 am W 17 20----29.86- 61.5-----
0930 7:54 am W 16 19----29.85- 61.5-----
0930 7:48 am W 15 19----29.85- 61.7-----
0930 7:42 am W 15 19----29.84- 61.2-----
0930 7:36 am W 17 20----29.84- 61.3-----
0930 7:30 am W 15 17----29.84- 61.3-----
0930 7:24 am W 14 17----29.84- 61.7-----
0930 7:18 am W 14 16------ 61.3-----
0930 7:12 am W 13 17------ 61.7-----
0930 7:06 am W 12 18------ 61.9-----
0930 7:00 am W 14 16------ 61.9-----
0930 6:54 am W 13 16------ 61.7-----
0930 6:48 am W 14 17------------
0930 6:42 am W 13 15------------
0930 6:36 am W 13 15------------
0930 6:30 am W 13 16------ 61.9-----
0930 6:24 am W 14 17------ 61.9-----
0930 6:18 am W 12 16----29.80- 61.9-----
0930 6:12 am W 14 16----29.81- 62.1-----
0930 6:06 am W 12 15----29.80- 62.1-----
0930 6:00 amWNW 13 14----29.80+0.10 61.5-----
0930 5:54 amWNW 11 14----29.80- 61.9-----
0930 5:42 am-------29.79- 61.3-----
0930 5:36 am-------29.79- 61.2-----
0930 5:30 amWNW 12 15----29.79- 61.5-----
0930 5:24 am W 12 14----29.78-------
0930 5:18 am W 12 14----29.78- 61.5-----
0930 5:12 amWNW 12 15----29.78- 61.3-----
0930 5:06 amWNW 11 14----29.77- 61.3-----
0930 5:00 am W 11 15----29.77+0.07 61.2-----
0930 4:54 am W 13 14----29.77- 61.0-----
0930 4:48 amWNW 11 13----29.76- 61.0-----
0930 4:42 am W 11 13----29.77- 61.2-----
0930 4:36 am W 11 13----29.76- 61.3-----
0930 4:30 am W 9 12----29.76- 61.7-----
0930 4:24 am W 8 10----29.75- 61.3-----
0930 4:18 am W 7 14----29.74- 60.8-----
0930 4:12 amWNW 13 16----29.75- 61.0-----
0930 4:06 amWNW 17 19----29.76- 61.2-----
0930 4:00 am W 17 22----29.75- 61.0-----
0930 3:54 amWNW 18 20----29.75- 61.3-----
0930 3:48 am W 17 21----29.75- 61.3-----
0930 3:42 am W 20 22----29.75- 61.2-----
0930 3:36 am W 18 20----29.73- 61.3-----
0930 3:30 amWNW 17 21----29.72- 61.7-----
0930 3:24 amWNW 19 20----29.72- 61.5-----
0930 3:18 am W 7 9----29.72- 61.5-----
0930 3:12 amWSW 6 8----29.72- 61.3-----
0930 3:06 am W 4 5----29.70- 61.2-----
0930 3:00 am- 0 3----29.70+0.04------
0930 2:54 amNNE 2 3----29.70- 60.8-----
0930 2:48 amWNW 2 4----29.70- 60.8-----
0930 2:42 am SW 2 3----29.71- 60.8-----
0930 2:36 am- 0 2----29.71- 60.8-----
0930 2:30 am W 1 2----29.71- 60.4-----
0930 2:24 am W 1 2----29.72- 60.3-----
0930 2:18 amNNW 1 2----29.71- 60.3-----
0930 2:12 am- 0 2----29.70- 60.4-----
0930 2:06 am- 0 4----29.70- 60.4-----
0930 2:00 am NE 1 4----29.70+0.09 60.1-----
0930 1:54 amNNE 1 3----29.70- 60.4-----
0930 1:48 am NE 2 5----29.70- 60.1-----
0930 1:42 am NE 2 4----29.70- 59.7-----
0930 1:36 am NE 3 5----29.70- 60.1-----
0930 1:30 amENE 1 7----29.71- 60.4-----
0930 1:24 amNNE 1 8----29.71- 60.4-----
0930 1:18 amNNW 7 11----29.71- 60.3-----
0930 1:12 amNNW 5 12----29.70- 60.4-----
0930 1:06 am N 3 7----29.70- 60.3-----
0930 1:00 am SE 2 4------ 59.9-----
093012:54 amESE 1 6------ 60.1-----
093012:48 amENE 2 13----29.69- 60.4-----
093012:42 am N 3 18----29.70- 60.6-----
093012:36 amNNW 13 21----29.70- 61.0-----
093012:30 am NW 20 28------ 61.2-----
093012:24 am NW 24 31------ 61.2-----
093012:18 am NW 26 33------ 61.2-----
093012:12 am NW 29 34----29.66- 61.7-----
093012:06 am NW 32 36----29.66- 61.9-----
093012:00 am NW 29 33----29.66-0.03 63.1-----
092911:54 pm NW 28 33----29.67- 64.0-----
092911:48 pmWNW 21 25----29.66- 67.6-----
092911:42 pm W 18 31----29.66- 68.2-----
092911:36 pmWNW 22 27----29.64- 68.2-----
092911:30 pm W 23 34----29.65- 69.3-----
092911:24 pm S 22 31----29.63- 74.5-----
092911:18 pm S 21 32----29.62- 74.5-----
092911:12 pm S 26 32----29.61- 75.0-----
092911:06 pmSSE 21 25----29.61- 74.7-----
092911:00 pm S 21 26----29.61-0.09 74.5-----
092910:54 pmSSE 16 19----29.61- 74.1-----
092910:48 pmSSE 14 18----29.62- 73.9-----
092910:42 pmSSE 16 20----29.62- 74.1-----
092910:36 pmSSE 14 17----29.62- 73.9-----
092910:30 pmSSE 13 15----29.63- 73.8-----
092910:24 pmSSE 15 19----29.64- 73.9-----
092910:18 pmSSE 13 15----29.64- 73.9-----
092910:12 pmSSE 13 16----29.65- 74.1-----
092910:06 pmSSE 11 14----29.65- 73.8-----
092910:00 pm--------- 73.6-----
0929 9:54 pm--------- 73.8-----
0929 9:48 pmSSE 12 15------ 73.8-----
0929 9:42 pmSSE 12 16------ 73.8-----
0929 9:36 pmSSE 11 14------ 73.6-----
0929 9:30 pmSSE 11 14----29.67- 73.6-----
0929 9:24 pmSSE 11 13----29.67- 73.4-----
0929 9:18 pmSSE 10 12------------
0929 9:12 pmSSE 11 13----29.68- 73.6-----
0929 9:06 pm S 12 16----29.68- 73.4-----
0929 9:00 pm S 13 15----29.68- 73.4-----
0929 8:54 pm S 12 15----29.69- 73.6-----

Description of Measurements

Links which are specific to this station are listed below:

Real Time Data in tabular form for the last forty-five days.

Historical Data & Climatic Summaries for quality controlled data for the current month, previous months, and previous years.